Weather History for GMMZ - July, 2013

Change the Weather History Date:

Thursday, July 25, 2013

  Actual Average Record
Temperature  
Mean Temperature 86 °F -  
Max Temperature 104 °F 99 °F - ()
Min Temperature 69 °F 69 °F - ()
Cooling Degree Days 22    
Growing Degree Days 36 (Base 50)    
Moisture  
Dew Point 31 °F    
Average Humidity 14    
Maximum Humidity 31    
Minimum Humidity 4    
Precipitation  
Precipitation 0.00 in 0.01 in - ()
Sea Level Pressure  
Sea Level Pressure 30.09 in    
Wind  
Wind Speed 5 mph ()    
Max Wind Speed 21 mph    
Max Gust Speed 33 mph    
Visibility 8.5 miles    
Events      
T = Trace of Precipitation, MM = Missing Value Source: Averaged Metar Reports

Daily Weather History Graph

Daily Weather History Graph

Search for Another Location

Airport or City:

Trip Planner

Search our weather history database for the weather conditions in past years. The results will help you decide how hot, cold, wet, or windy it might be!

Date:

Astronomy

Jul. 25, 2013 Rise Set
Actual Time 5:40 AM WET 7:27 PM WET
Civil Twilight 5:13 AM WET 7:53 PM WET
Nautical Twilight 4:41 AM WET 8:26 PM WET
Astronomical Twilight 4:07 AM WET 8:59 PM WET
Moon 9:19 PM WET (7/25) 8:37 AM WET (7/25)
Length of Visible Light 14h 40m
Length of Day
13h 46m
Waning Gibbous, 89% of the Moon is Illuminated
Jul 25
Waning Gibbous
Jul 29
Last Quarter
Aug 6
New
Aug 14
First Quarter
Aug 21
Full

Hourly Weather History & Observations

Time (WET) Temp. Dew Point Humidity Pressure Visibility Wind Dir Wind Speed Gust Speed Precip Events Conditions
12:00 AM 84 °F 42 °F 14%  in 12 mi Calm Calm - -  
12:00 AM 84.2 °F 42.8 °F 23% 30.12 in - Calm Calm - N/A   Clear
1:00 AM 82.4 °F 41.0 °F 23% 30.12 in - West 4.6 mph - N/A   Clear
2:00 AM 75.2 °F 42.8 °F 31% 30.12 in - NNW 2.3 mph - N/A   Clear
3:00 AM 75 °F 40 °F 18%  in 12 mi NW 2.3 mph - -  
3:00 AM 75.2 °F 39.2 °F 27% 30.12 in - NW 2.3 mph - N/A   Clear
4:00 AM 75.2 °F 39.2 °F 27% 30.12 in - Variable 1.2 mph - N/A   Clear
5:00 AM 69.8 °F 35.6 °F 28% 30.12 in - Variable 2.3 mph - N/A   Clear
6:00 AM 74 °F 36 °F 15%  in 12 mi WSW 3.5 mph - -  
6:00 AM 73.4 °F 35.6 °F 25% 30.12 in - Variable 3.5 mph - N/A   Clear
7:00 AM 73.4 °F 35.6 °F 25% 30.15 in - Variable 1.2 mph - N/A   Clear
8:00 AM 80.6 °F 37.4 °F 21% 30.15 in - Variable 1.2 mph - N/A   Clear
9:00 AM 86 °F 39 °F 11%  in 9 mi ENE 1.2 mph - -  
9:00 AM 86.0 °F 39.2 °F 19% 30.15 in - Variable 1.2 mph - N/A   Clear
10:00 AM 91.4 °F 37.4 °F 15% 30.15 in - Variable 2.3 mph - N/A   Clear
11:00 AM 96.8 °F 37.4 °F 13% 30.12 in - ESE 5.8 mph - N/A   Clear
12:00 PM 100 °F 31 °F 4%  in 12 mi SSE 5.8 mph - -   Scattered Clouds
12:00 PM 100.4 °F 32.0 °F 9% 30.09 in 6.2 mi SSE 5.8 mph - N/A   Partly Cloudy
1:00 PM 102.2 °F 30.2 °F 8% 30.09 in 6.2 mi South 13.8 mph 28.8 mph N/A   Scattered Clouds
2:00 PM 104.0 °F 30.2 °F 8% 30.06 in 6.2 mi SSE 18.4 mph 33.4 mph N/A   Scattered Clouds
3:00 PM 103 °F 27 °F 4%  in 12 mi SSE 15.0 mph - -   Partly Cloudy
3:00 PM 102.2 °F 26.6 °F 7% 30.04 in 6.2 mi SSE 15.0 mph 27.6 mph N/A   Partly Cloudy
4:00 PM 104.0 °F 24.8 °F 6% 30.04 in 6.2 mi South 13.8 mph - N/A   Scattered Clouds
5:00 PM 102.2 °F 23.0 °F 6% 30.01 in 6.2 mi SSE 8.1 mph - N/A   Scattered Clouds
6:00 PM 102.2 °F 19.4 °F 5% 30.01 in 6.2 mi WSW 15.0 mph - N/A   Scattered Clouds
7:00 PM 98.6 °F 15.8 °F 5% 30.04 in 6.2 mi West 20.7 mph - N/A   Partly Cloudy
8:00 PM 96.8 °F 14.0 °F 5% 30.04 in 6.2 mi WSW 16.1 mph - N/A   Partly Cloudy
9:00 PM 93 °F 12 °F 4%  in 12 mi West 13.8 mph - -  
9:00 PM 93.2 °F 12.2 °F 5% 30.06 in - West 12.7 mph - N/A   Clear
10:00 PM 87.8 °F 17.6 °F 8% 30.09 in - West 4.6 mph - N/A   Clear
11:00 PM 87.8 °F 15.8 °F 7% 30.09 in - West 4.6 mph - N/A   Clear